• In Uzbekistan
  • List of Countries
  • For 7 days
  • Water Temperature
  • Satellite Maps
  • Weather Map
  • Weather Widgets
  • user-avatar
    Login

    Hourly Weather Greenville

    Today, 17 October, Tuesday

    Time Temperature Precipitation Wind Pressure Humidity
    00:00 +26°C° 0 mm 2 mps 761 mmHg 95%
    01:00 +25°C° 0 mm 2 mps 760 mmHg 96%
    02:00 +25°C° 0 mm 2 mps 760 mmHg 96%
    03:00 +25°C° 0.2 mm 2 mps 760 mmHg 96%
    04:00 +25°C° 0.2 mm 2 mps 760 mmHg 97%
    05:00 +25°C° 0.2 mm 2 mps 760 mmHg 97%
    06:00 +27°C° 0.2 mm 2 mps 761 mmHg 91%
    07:00 +28°C° 0.2 mm 1 mps 761 mmHg 86%
    08:00 +30°C° 0.2 mm 1 mps 761 mmHg 80%
    09:00 +30°C° 0 mm 2 mps 761 mmHg 76%
    10:00 +31°C° 0 mm 2 mps 761 mmHg 71%
    11:00 +32°C° 0 mm 2 mps 761 mmHg 67%
    12:00 +32°C° 0.5 mm 2 mps 760 mmHg 70%
    13:00 +31°C° 0.5 mm 3 mps 759 mmHg 72%
    14:00 +31°C° 0.5 mm 3 mps 759 mmHg 75%
    15:00 +30°C° 0.4 mm 3 mps 759 mmHg 79%
    16:00 +29°C° 0.4 mm 3 mps 759 mmHg 83%
    17:00 +28°C° 0.4 mm 3 mps 759 mmHg 87%
    18:00 +28°C° 0.1 mm 2 mps 760 mmHg 89%
    19:00 +27°C° 0.1 mm 2 mps 761 mmHg 91%
    20:00 +27°C° 0.1 mm 2 mps 761 mmHg 93%
    21:00 +27°C° 0.1 mm 2 mps 761 mmHg 94%
    22:00 +27°C° 0.1 mm 2 mps 761 mmHg 94%
    23:00 +26°C° 0.1 mm 2 mps 761 mmHg 95%

    Tomorrow, 18 October, Wednesday

    Time Temperature Precipitation Wind Pressure Humidity
    00:00 +26°C° 0 mm 2 mps 761 mmHg 95%
    01:00 +26°C° 0 mm 2 mps 760 mmHg 96%
    02:00 +26°C° 0 mm 2 mps 760 mmHg 96%
    03:00 +26°C° 0.1 mm 2 mps 760 mmHg 96%
    04:00 +26°C° 0.1 mm 2 mps 760 mmHg 96%
    05:00 +26°C° 0.1 mm 2 mps 760 mmHg 96%
    06:00 +27°C° 0.1 mm 2 mps 760 mmHg 92%
    07:00 +28°C° 0.1 mm 2 mps 761 mmHg 87%
    08:00 +29°C° 0.1 mm 2 mps 761 mmHg 83%
    09:00 +30°C° 0.2 mm 3 mps 761 mmHg 80%
    10:00 +31°C° 0.2 mm 3 mps 761 mmHg 76%
    11:00 +31°C° 0.2 mm 3 mps 760 mmHg 73%
    12:00 +31°C° 0.4 mm 3 mps 760 mmHg 74%
    13:00 +32°C° 0.4 mm 4 mps 759 mmHg 74%
    14:00 +32°C° 0.4 mm 4 mps 758 mmHg 75%
    15:00 +30°C° 0.3 mm 4 mps 758 mmHg 79%
    16:00 +29°C° 0.3 mm 3 mps 758 mmHg 83%
    17:00 +28°C° 0.3 mm 3 mps 759 mmHg 87%
    18:00 +28°C° 0.3 mm 2 mps 759 mmHg 89%
    19:00 +27°C° 0.3 mm 2 mps 760 mmHg 92%
    20:00 +26°C° 0.3 mm 2 mps 760 mmHg 94%
    21:00 +26°C° 0.1 mm 1 mps 761 mmHg 95%
    22:00 +26°C° 0.1 mm 1 mps 761 mmHg 95%
    23:00 +26°C° 0.1 mm 1 mps 761 mmHg 96%

    Day after tomorrow, 19 October, Thursday

    Time Temperature Precipitation Wind Pressure Humidity
    00:00 +26°C° 0 mm 1 mps 760 mmHg 96%
    01:00 +26°C° 0 mm 1 mps 760 mmHg 97%
    02:00 +25°C° 0 mm 1 mps 759 mmHg 97%
    03:00 +25°C° 0 mm 1 mps 759 mmHg 97%
    04:00 +25°C° 0 mm 1 mps 759 mmHg 97%
    05:00 +25°C° 0 mm 1 mps 760 mmHg 97%
    06:00 +27°C° 0 mm 2 mps 760 mmHg 92%
    07:00 +28°C° 0 mm 2 mps 761 mmHg 86%
    08:00 +29°C° 0 mm 2 mps 761 mmHg 80%
    09:00 +30°C° 0 mm 3 mps 761 mmHg 76%
    10:00 +31°C° 0 mm 3 mps 760 mmHg 71%
    11:00 +33°C° 0 mm 3 mps 760 mmHg 67%
    12:00 +33°C° 0.2 mm 3 mps 759 mmHg 68%
    13:00 +33°C° 0.2 mm 3 mps 759 mmHg 70%
    14:00 +33°C° 0.2 mm 4 mps 758 mmHg 71%
    15:00 +31°C° 0.2 mm 3 mps 758 mmHg 75%
    16:00 +30°C° 0.2 mm 3 mps 758 mmHg 80%
    17:00 +29°C° 0.2 mm 3 mps 758 mmHg 85%
    18:00 +28°C° 0.1 mm 2 mps 759 mmHg 88%
    19:00 +27°C° 0.1 mm 2 mps 759 mmHg 91%
    20:00 +27°C° 0.1 mm 1 mps 760 mmHg 93%
    21:00 +26°C° 0.1 mm 1 mps 760 mmHg 94%
    22:00 +26°C° 0.1 mm 1 mps 760 mmHg 95%
    23:00 +24°C° 0.1 mm 0 mps 760 mmHg 96%

    20 October, Friday

    Time Temperature Precipitation Wind Pressure Humidity
    00:00 +26°C° 0 mm 1 mps 759 mmHg 96%
    01:00 +26°C° 0 mm 1 mps 759 mmHg 96%
    02:00 +25°C° 0 mm 1 mps 758 mmHg 97%
    03:00 +25°C° 0 mm 1 mps 758 mmHg 97%
    04:00 +25°C° 0 mm 1 mps 759 mmHg 97%
    05:00 +25°C° 0 mm 1 mps 759 mmHg 97%
    06:00 +27°C° 0 mm 2 mps 759 mmHg 91%
    07:00 +28°C° 0 mm 2 mps 759 mmHg 85%
    08:00 +30°C° 0 mm 2 mps 760 mmHg 79%
    09:00 +31°C° 0 mm 2 mps 760 mmHg 75%
    10:00 +31°C° 0 mm 2 mps 759 mmHg 71%
    11:00 +33°C° 0 mm 3 mps 759 mmHg 67%
    12:00 +33°C° 0.2 mm 3 mps 758 mmHg 68%
    13:00 +33°C° 0.2 mm 3 mps 758 mmHg 69%
    14:00 +33°C° 0.2 mm 3 mps 757 mmHg 70%
    15:00 +31°C° 0.2 mm 3 mps 758 mmHg 75%
    16:00 +30°C° 0.2 mm 3 mps 758 mmHg 80%
    17:00 +29°C° 0.2 mm 3 mps 758 mmHg 85%
    18:00 +28°C° 0.2 mm 2 mps 759 mmHg 88%
    19:00 +27°C° 0.2 mm 2 mps 759 mmHg 90%
    20:00 +27°C° 0.2 mm 1 mps 760 mmHg 93%
    21:00 +27°C° 0.1 mm 1 mps 760 mmHg 94%
    22:00 +26°C° 0.1 mm 1 mps 760 mmHg 94%
    23:00 +26°C° 0.1 mm 1 mps 759 mmHg 95%

    21 October, Saturday

    Time Temperature Precipitation Wind Pressure Humidity
    00:00 +24°C° 0.1 mm 0 mps 759 mmHg 95%
    01:00 +24°C° 0.1 mm 0 mps 759 mmHg 95%
    02:00 +24°C° 0.1 mm 0 mps 758 mmHg 96%
    03:00 +24°C° 0.2 mm 0 mps 758 mmHg 96%
    04:00 +23°C° 0.2 mm 0 mps 759 mmHg 96%
    05:00 +23°C° 0.2 mm 0 mps 759 mmHg 96%
    06:00 +25°C° 0 mm 0 mps 759 mmHg 89%
    07:00 +29°C° 0 mm 1 mps 760 mmHg 82%
    08:00 +31°C° 0 mm 1 mps 760 mmHg 75%
    09:00 +31°C° 0 mm 1 mps 760 mmHg 71%
    10:00 +32°C° 0 mm 2 mps 759 mmHg 66%
    11:00 +34°C° 0 mm 2 mps 759 mmHg 62%
    12:00 +34°C° 0.2 mm 2 mps 758 mmHg 64%
    13:00 +33°C° 0.2 mm 3 mps 758 mmHg 67%
    14:00 +33°C° 0.2 mm 3 mps 757 mmHg 69%
    15:00 +31°C° 0.1 mm 3 mps 757 mmHg 73%
    16:00 +30°C° 0.1 mm 3 mps 758 mmHg 78%
    17:00 +29°C° 0.1 mm 2 mps 758 mmHg 82%
    18:00 +28°C° 0 mm 2 mps 759 mmHg 85%
    19:00 +28°C° 0 mm 2 mps 759 mmHg 87%
    20:00 +27°C° 0 mm 1 mps 760 mmHg 90%
    21:00 +27°C° 0.1 mm 1 mps 760 mmHg 91%
    22:00 +27°C° 0.1 mm 1 mps 760 mmHg 92%
    23:00 +26°C° 0.1 mm 1 mps 759 mmHg 93%

    22 October, Sunday

    Time Temperature Precipitation Wind Pressure Humidity
    00:00 +26°C° 0.2 mm 1 mps 759 mmHg 94%
    01:00 +26°C° 0.2 mm 1 mps 759 mmHg 94%
    02:00 +24°C° 0.2 mm 0 mps 758 mmHg 95%
    03:00 +26°C° 0.2 mm 1 mps 758 mmHg 95%
    04:00 +26°C° 0.2 mm 1 mps 759 mmHg 96%
    05:00 +25°C° 0.2 mm 1 mps 759 mmHg 96%
    06:00 +27°C° 0 mm 1 mps 759 mmHg 89%
    07:00 +29°C° 0 mm 2 mps 760 mmHg 83%
    08:00 +30°C° 0 mm 2 mps 760 mmHg 76%
    09:00 +31°C° 0.1 mm 2 mps 760 mmHg 72%
    10:00 +33°C° 0.1 mm 3 mps 759 mmHg 68%
    11:00 +34°C° 0.1 mm 3 mps 759 mmHg 65%
    12:00 +33°C° 0.5 mm 3 mps 759 mmHg 69%
    13:00 +31°C° 0.5 mm 3 mps 758 mmHg 73%
    14:00 +32°C° 0.5 mm 4 mps 758 mmHg 77%
    15:00 +30°C° 0.4 mm 3 mps 758 mmHg 80%
    16:00 +29°C° 0.4 mm 3 mps 758 mmHg 84%
    17:00 +28°C° 0.4 mm 3 mps 758 mmHg 87%
    18:00 +28°C° 0.1 mm 3 mps 759 mmHg 90%
    19:00 +27°C° 0.1 mm 2 mps 759 mmHg 92%
    20:00 +27°C° 0.1 mm 2 mps 760 mmHg 94%
    21:00 +26°C° 0.2 mm 2 mps 760 mmHg 95%
    22:00 +26°C° 0.2 mm 2 mps 760 mmHg 95%
    23:00 +26°C° 0.2 mm 2 mps 760 mmHg 96%
    Show more